{"data":{"norad_id":62648,"intl_designator":"2025-009AR","name":"LIME","alt_names":[],"object_type":"PAYLOAD","status":"ACTIVE","operator":null,"country":"US","launch_date":"2025-01-14","launch_site_code":"AFWTR","launch_vehicle":null,"mission":null,"orbit_class":"UNKNOWN","rcs_meters":null,"size_class":null,"mass_kg":null,"dimensions":null,"purposes":[],"wikipedia_slug":null,"has_3d_model":false,"image_url":null,"decayed_at":null,"tle_current":{"epoch":"2026-09-22T16:33:48.835584Z","epoch_age_seconds":128363,"freshness":"FRESH","line1":"1 62648U 25009AR  26265.69014856  .00007684  00000+0  24640-3 0  9995","line2":"2 62648  97.3901 347.7498 0002109  45.8396 314.3019 15.32619923 93897","mean_motion":15.32619923,"eccentricity":0.0002109,"inclination_deg":97.3901,"raan_deg":347.7498,"arg_perigee_deg":45.8396,"mean_anomaly_deg":314.3019,"bstar":0.0002464,"rev_number":9389,"period_min":93.956758514616,"perigee_km":466.55527425913,"apogee_km":469.44297447639,"semimajor_km":6846.1361243678,"source":"CELESTRAK","updated_at":"2026-09-23T09:00:21.538189Z"}}}